Weather History for Rome, NY

Change the Weather History Date:

Friday, February 22, 2013

  Actual Average Record
Temperature  
Mean Temperature 22 °F -  
Max Temperature 33 °F 41 °F 58 °F (1981)
Min Temperature 12 °F 21 °F -2 °F (2011)
Degree Days  
Heating Degree Days 42    
Moisture  
Dew Point 16 °F    
Average Humidity 76    
Maximum Humidity 88    
Minimum Humidity 59    
Precipitation  
Precipitation 0.00 in - - ()
Sea Level Pressure  
Sea Level Pressure 30.34 in    
Wind  
Wind Speed 6 mph (ESE)    
Max Wind Speed 14 mph    
Max Gust Speed -    
Visibility 10 miles    
Events Snow    
Averages and records for this station are not official NWS values.
T = Trace of Precipitation, MM = Missing Value Source: NWS Daily Summary

Daily Weather History Graph

Daily Weather History Graph

Search for Another Location

Airport:

Trip Planner

Search our weather history database for the weather conditions in past years. The results will help you decide how hot, cold, wet, or windy it might be!

Date:

Astronomy

Feb. 22, 2013 Rise Set
Actual Time 6:48 AM EST 5:42 PM EST
Civil Twilight 6:19 AM EST 6:10 PM EST
Nautical Twilight 5:46 AM EST 6:44 PM EST
Astronomical Twilight 5:13 AM EST 7:17 PM EST
Moon 2:48 PM EST (2/22) 4:35 AM EST (2/22)
Length of Visible Light 11h 51m
Length of Day
10h 53m
Waxing Gibbous, 90% of the Moon is Illuminated
Feb 22
Waxing Gibbous
Feb 25
Full
Mar 4
Last Quarter
Mar 11
New
Mar 19
First Quarter

Hourly Weather History & Observations

Time (EST) Temp. Windchill Dew Point Humidity Pressure Visibility Wind Dir Wind Speed Gust Speed Precip Events Conditions
12:12 AM 16.0 °F 8.8 °F 12.9 °F 88% 30.42 in 10.0 mi East 4.6 mph - N/A   Overcast
12:19 AM 16.0 °F 8.8 °F 12.9 °F 88% 30.42 in 10.0 mi East 4.6 mph - N/A   Overcast
12:53 AM 16.0 °F 10.4 °F 12.9 °F 88% 30.43 in 10.0 mi East 3.5 mph - N/A   Overcast
1:53 AM 16.0 °F - 12.0 °F 84% 30.40 in 10.0 mi Calm Calm - N/A   Overcast
2:43 AM 16.0 °F 7.4 °F 12.9 °F 88% 30.38 in 10.0 mi WNW 5.8 mph - N/A   Overcast
2:53 AM 16.0 °F 6.3 °F 12.9 °F 88% 30.41 in 10.0 mi WNW 6.9 mph - N/A   Overcast
3:53 AM 16.0 °F 7.4 °F 12.9 °F 88% 30.44 in 10.0 mi NNW 5.8 mph - N/A   Overcast
4:53 AM 16.0 °F - 12.0 °F 84% 30.44 in 10.0 mi Calm Calm - N/A   Overcast
5:53 AM 15.1 °F 5.2 °F 12.0 °F 88% 30.42 in 10.0 mi East 6.9 mph - N/A   Overcast
6:09 AM 15.1 °F 5.2 °F 12.0 °F 88% 30.40 in 10.0 mi East 6.9 mph - N/A   Overcast
6:53 AM 14.0 °F 3.9 °F 10.9 °F 88% 30.44 in 10.0 mi ESE 6.9 mph - N/A   Overcast
7:25 AM 14.0 °F 5.1 °F 10.9 °F 88% 30.43 in 10.0 mi East 5.8 mph - N/A   Scattered Clouds
7:53 AM 12.9 °F 6.9 °F 9.0 °F 84% 30.47 in 10.0 mi ESE 3.5 mph - N/A   Clear
8:25 AM 16.0 °F 7.4 °F 10.9 °F 81% 30.42 in 10.0 mi ESE 5.8 mph - N/A   Mostly Cloudy
8:53 AM 18.0 °F 9.8 °F 10.9 °F 74% 30.43 in 10.0 mi East 5.8 mph - N/A   Overcast
9:53 AM 18.0 °F 12.7 °F 12.9 °F 81% 30.41 in 10.0 mi ESE 3.5 mph - N/A   Scattered Clouds
10:53 AM 21.0 °F 13.4 °F 15.1 °F 78% 30.42 in 10.0 mi South 5.8 mph - N/A   Clear
11:53 AM 24.1 °F 16.0 °F 17.1 °F 75% 30.37 in 10.0 mi East 6.9 mph - N/A   Clear
12:53 PM 28.9 °F 21.1 °F 19.0 °F 67% 30.31 in 10.0 mi East 8.1 mph - N/A   Clear
1:53 PM 32.0 °F 22.1 °F 19.0 °F 59% 30.28 in 10.0 mi SE 13.8 mph - N/A   Clear
2:53 PM 32.0 °F 22.1 °F 19.9 °F 61% 30.26 in 10.0 mi SE 13.8 mph - N/A   Clear
3:53 PM 32.0 °F 22.5 °F 19.9 °F 61% 30.25 in 10.0 mi ESE 12.7 mph - N/A   Partly Cloudy
4:53 PM 33.1 °F 25.5 °F 21.0 °F 61% 30.25 in 10.0 mi SE 9.2 mph - N/A   Mostly Cloudy
5:53 PM 33.1 °F 24.9 °F 21.0 °F 61% 30.23 in 10.0 mi East 10.4 mph - N/A   Overcast
6:53 PM 33.1 °F 26.1 °F 21.9 °F 64% 30.22 in 8.0 mi ESE 8.1 mph - 0.00 in Snow Light Snow
7:53 PM 33.1 °F 24.4 °F 21.9 °F 64% 30.20 in 10.0 mi ESE 11.5 mph - 0.00 in   Overcast
8:53 PM 33.1 °F 23.4 °F 23.0 °F 66% 30.19 in 10.0 mi ESE 13.8 mph - 0.00 in   Overcast
9:53 PM 33.1 °F 24.4 °F 21.9 °F 64% 30.20 in 10.0 mi ESE 11.5 mph - 0.00 in   Overcast
10:53 PM 33.1 °F 24.4 °F 23.0 °F 66% 30.19 in 10.0 mi ESE 11.5 mph - 0.00 in   Overcast
11:53 PM 33.1 °F 24.4 °F 23.0 °F 66% 30.17 in 10.0 mi ESE 11.5 mph - N/A   Overcast